Orbital Elements at Epoch 2459200.5 (2020-Dec-17.0) TDB
Reference: JPL 17 (heliocentric ecliptic J2000)
Element | Value | Uncertainty (1-sigma) | Units |
e | .07739325463183229 | 3.5551e-08 | |
a | 2.658345545846357 | 1.738e-08 | au |
q | 2.452607532117272 | 1.0217e-07 | au |
i | 9.485290675669361 | 4.8183e-06 | deg |
node | 151.3793086659298 | 2.123e-05 | deg |
peri | 267.5371406653635 | 4.067e-05 | deg |
M | 306.973094303151 | 3.6483e-05 | deg |
tp | 2459433.689697818229 (2021-Aug-07.18969782) | 0.00016101 | TDB |
period | 1583.126341455577 4.33 | 1.5525e-05 4.251e-08 | d yr |
n | .2273981492020431 | 2.23e-09 | deg/d |
Q | 2.864083559575441 | 1.8725e-08 | au |
|
| | Orbit Determination Parameters
Additional Information
|